Location: Franzen
(48.6167°N, 15.3833°E)
Time: 06:23:06
(UTC+00:00)

Altair - Pass Details

Date: 11 August 2021
Orbit: 1501 x 1682 km, 47.2° (Epoch: 21 September)

Event Time Altitude Azimuth Distance (km) Brightness Sun altitude
Rises 19:19:50 0° 178° (S) 4,853 9.8 -9.4°
Reaches altitude 10° 19:24:47 10° 158° (SSE) 3,836 9.1 -10.0°
Maximum altitude 19:29:46 15° 126° (SE) 3,389 8.6 -10.7°
Drops below altitude 10° 19:34:40 10° 94° (E) 3,769 9.1 -11.3°
Sets 19:39:23 0° 74° (ENE) 4,722 9.7 -11.9°
